Simultaneous Nadir Overpasses (SNOs) Predictions

Prediction of SNOs between GOES-17 and METOP-C Satellite Orbit:

Table of predicted SNOs for the next 14.0 days since TLE Epoch: 6/29/2020
Index Date Time (GOES-17) GOES-17 Lat,Lon METOP-C Lat,Lon Distance(km) Time Diff (sec)
1 06/29/2020 06:28:27 -0.01,-137.19 0.67,-134.00 363.30 80
2 06/30/2020 18:44:40 0.01,-137.20 0.34,-138.56 156.08 80
3 07/01/2020 18:26:40 0.02,-137.20 -0.77,-133.57 413.29 80
4 07/03/2020 06:45:41 -0.02,-137.20 -0.22,-138.17 110.55 80
5 07/04/2020 06:22:21 -0.02,-137.19 0.89,-133.17 458.23 80
6 07/05/2020 18:41:13 0.02,-137.19 0.13,-137.74 62.55 80
7 07/08/2020 06:42:13 -0.01,-137.17 -0.06,-137.33 18.67 80
8 07/10/2020 18:40:26 0.01,-137.15 -0.03,-136.90 28.55 80
9 07/12/2020 06:59:25 -0.01,-137.14 -1.01,-141.49 496.31 80
